Regional Weather Roundup
Issued by NWS

Home | Current Version | Previous Version | Text Only | Print | Product List | Glossary Off
Versions: 1 2 3 4 5 6 7 8 9 10 11 12 13 14 15 16 17 18 19 20 21 22 23 24 25 26 27 28 29 30 31 32 33 34 35 36 37 38 39 40 41 42 43 44 45 46 47 48 49 50

000
ASUS43 KDMX 292006
RWRIA

WEATHER ROUNDUP FOR IOWA
NATIONAL WEATHER SERVICE DES MOINES IA
300 PM CDT SAT APR 29 2017

NOTE: "FAIR" INDICATES FEW OR NO CLOUDS BELOW 12,000 FEET WITH NO
SIGNIFICANT WEATHER AND/OR OBSTRUCTIONS TO VISIBILITY.

* - THESE STATIONS ARE NOT NWS STATIONS...THUS NOT UNDER NWS
QUALITY CONTROL.  THEY ALSO DO NOT REPORT WEATHER SUCH
AS PRECIPITATION OR FOG.

IAZ001>003-012>014-020>022-031>034-043>046-292100-
   NORTHWEST IOWA

CITY           SKY/WX    TMP DP  RH WIND       PRES   REMARKS
CARROLL *      CLOUDY    43  39  87 NE24      30.12F
CHEROKEE *     CLOUDY    47  32  56 NE9G22    30.19S
DENISON *      CLOUDY    45  36  70 NE22G32   30.12F
LE MARS *      CLOUDY    50  32  50 NE18G25   30.19F
ORANGE CITY *  CLOUDY    48  32  53 E10G17    30.21S
SHELDON *      CLOUDY    48  25  40 E17G28    30.21S
SIOUX CITY     CLOUDY    50  32  50 NE18      30.16F
SPENCER        CLOUDY    49  27  42 NE18G26   30.22F
STORM LAKE *     N/A     46  32  57 NE22      30.16F
$$

IAZ055>058-069>071-079>083-090>094-292100-
   SOUTHWEST IOWA

CITY           SKY/WX    TMP DP  RH WIND       PRES   REMARKS
ATLANTIC *     LGT RAIN  43  39  87 NE23G30   30.06F
AUDUBON *      DRIZZLE   43  37  81 NE20G25   30.10S
CLARINDA *     CLOUDY    43  43 100 NE17G29   30.01F FOG
COUNCIL BLFS * CLOUDY    43  41  93 NE22G36   29.99F
CRESTON *      MIX PCPN  41  41 100 NE25G32   30.03R
HARLAN  *      CLOUDY    43  41  93 NE23G30   30.08F
LAMONI         LGT RAIN  43  41  93 NE20G30   30.00S
RED OAK *      MIX PCPN  43  41  93 NE26G35   30.00F
SHENANDOAH *   MIX PCPN  45  43  93 NE31G43   29.88F
$$

IAZ047>049-059>061-072>074-084-292100-
   CENTRAL IOWA

CITY           SKY/WX    TMP DP  RH WIND       PRES   REMARKS
AMES           LGT RAIN  44  40  85 NE15G23   30.13F
ANKENY *       CLOUDY    43  39  87 MISG      30.13R
BOONE *        CLOUDY    43  39  87 NE24G30   30.11S
CHARITON *     LGT RAIN  43  41  93 NE23G32   30.03S
DES MOINES     LGT RAIN  44  40  85 NE20G30   30.09S
GRINNELL*      LGT RAIN  42  39  89 NE23      30.11F
KNOXVILLE *    LGT RAIN  43  41  93 NE14G23   30.05F
MARSHALLTOWN   LGT RAIN  43  39  86 NE18G25   30.13F
NEWTON *       CLOUDY    43  39  87 NE20G32   30.09S FOG
PELLA *        RAIN      42  41  95 NE9G20    30.08F
PERRY *        DRIZZLE   43  39  86 NE16G25   30.10F
$$

IAZ004>006-015-016-023>025-035-036-292100-
   NORTH CENTRAL IOWA

CITY           SKY/WX    TMP DP  RH WIND       PRES   REMARKS
ALGONA *       CLOUDY    46  30  53 NE14G23   30.21F
CLARION *      CLOUDY    45  36  70 NE24      30.17F
ESTHERVILLE    CLOUDY    48  28  46 E22       30.24F
FORT DODGE *   CLOUDY    45  34  65 NE20      30.16F
MASON CITY     CLOUDY    47  27  45 NE16      30.23F
FOREST CITY *    N/A     46  25  42 NE12      30.23F
WEBSTER CITY * LGT RAIN  43  37  81 NE21G26   30.13F
IOWA FALLS *   LGT RAIN  43  37  78 NE17G23   30.17F
$$

IAZ007>011-017>019-026>030-037>042-050>054-066-292100-
   NORTHEAST IOWA

CITY           SKY/WX    TMP DP  RH WIND       PRES   REMARKS
CEDAR RAPIDS   LGT RAIN  43  41  93 NE17      30.10F
CHARLES CITY * CLOUDY    45  28  53 NE16      30.21F
CLINTON *      RAIN      42  39  89 NE24      30.11R FOG
DECORAH *      CLOUDY    45  30  57 NE8G17    30.20F
DUBUQUE        LGT RAIN  43  36  76 NE17      30.14R
MONTICELLO *   LGT RAIN  45  39  81 NE16      30.13F
OELWEIN *      LGT RAIN  43  37  81 NE14G23   30.17F
WATERLOO       CLOUDY    44  35  70 NE20      30.16F
$$

IAZ064-065-067-068-078-292100-
   EAST CENTRAL IOWA

CITY           SKY/WX    TMP DP  RH WIND       PRES   REMARKS
DAVENPORT      TSTM      42  39  89 NE17      30.11S FOG
IOWA CITY      RAIN      45  41  86 NE16G23   30.10F FOG
MT. PLEASANT * RAIN      41  41 100 NE20G26   30.04S
MUSCATINE *    RAIN      45  41  87 NE18G25   30.09S
QUAD CITIES    RAIN      43  39  86 NE17      30.09S FOG
$$

IAZ062-063-075>077-085>089-095>099-292100-
   SOUTHEAST IOWA

CITY           SKY/WX    TMP DP  RH WIND       PRES   REMARKS
BURLINGTON     TSTM      42  42 100 NE17G29   30.01R FOG
FAIRFIELD *    CLOUDY    43  41  93 NE20G25   30.05S FOG
FORT MADISON * LGT RAIN  43  41  93 NE18G32   30.01S
KEOKUK *       RAIN      43  41  93 N10G24    30.00R
OSKALOOSA *    LGT RAIN  42  40  95 NE22G30   30.06F
CENTERVILLE *  RAIN      41  41 100 NE16G23   30.00F
OTTUMWA        RAIN      43  42  97 NE24G32   30.05S FOG
WASHINGTON *   RAIN      43  43 100 NE21G26   30.08R
$$

ABBREVIATIONS USED IN REMARKS
   TC - TEMPERATURES IN CELSIUS
  WCI - WIND CHILL INDEX
   HX - HEAT INDEX
  VSB - VISIBILITY
$$





USA.gov is the U.S. government's official web portal to all federal, state and local government web resources and services.